[[{"header":{"parameterUnit":"m.s-1","parameterCategory":2,"la1":30.2991,"la2":30.254,"lo1":-89.0895,"lo2":-89.0444,"dy":0.0017,"dx":0.0017,"nx":28,"ny":28,"refTime":"2025-08-18T09:00:00:Z","depth":"0","parameterNumber":2,"parameterNumberName":"U-component_of_CURRENTS"},"data":[0,0,0,0,0,0,0,0,0,0,0,0,0,0,0,0,0,0,0,0,0,0,0,0,0,0,0,0,0,0,0,0,0,0,0,0,0,0,0,0,0,0,0,0,0,0,0,0,0,0,0,0,0,0,0,0,0,0,0.1533,0.1533,0,0.1512,0.1512,0.1512,0.1491,0.1491,0.149,0.149,0.1493,0.1494,0.1494,0,0,0,0,0,0,0,0,0,0,0,0,0,0.1558,0.1558,0.1533,0.1533,0.1532,0.1512,0.1512,0.1512,0.1491,0.1491,0.149,0.149,0.1493,0.1494,0.1494,0,0,0,0,0,0,0,0,0,0,0,0,0,0.1544,0.1558,0.1533,0.1519,0.1517,0.1512,0.1512,0.1512,0.1491,0.1491,0.149,0.149,0.1493,0.1494,0.1494,0.1509,0,0,0.1496,0.1496,0,0,0,0,0,0,0,0,0.1545,0.1544,0.1521,0.152,0.1518,0.1503,0.1522,0.1512,0.1491,0.1502,0.149,0.1489,0.1499,0.1499,0.1497,0.1509,0.1509,0.1496,0.1497,0.1497,0.1497,0,0,0,0,0,0,0,0.1546,0.1544,0.1526,0.1521,0.1519,0.1515,0.1512,0.152,0.1505,0.1501,0.1499,0.1496,0.1498,0.1496,0.1497,0.1509,0.1496,0.1497,0.1497,0.1497,0.1575,0.1576,0,0,0,0,0,0,0.1547,0.1545,0.1526,0.1525,0.153,0.1515,0.1512,0.1509,0.1504,0.1502,0.1496,0.1495,0.1495,0.1496,0.1497,0.1547,0.1497,0.1497,0.1498,0.1573,0.1575,0.1577,0,0,0,0,0,0,0.1548,0.1546,0.1527,0.1534,0.1531,0.1515,0.1512,0.1509,0.1509,0.15,0.1499,0.1499,0.1495,0.1496,0.1519,0.1546,0.1498,0.1498,0.1571,0.1574,0.1576,0.1627,0,0,0,0,0,0,0.1549,0.1546,0.155,0.1534,0.1531,0.1535,0.1512,0.1509,0.1507,0.1505,0.1502,0.1502,0.1495,0.1518,0.1519,0.1546,0.1499,0.1569,0.1572,0.1575,0.1623,0.1631,0.1637,0,0,0,0,0,0.155,0.1557,0.1551,0.1548,0.1535,0.1536,0.1535,0.1522,0.1508,0.1518,0.1518,0.1502,0.1539,0.152,0.1521,0.1548,0.1567,0.1571,0.1575,0.162,0.1629,0.1637,0,0,0,0,0,0,0.1566,0.1555,0.1548,0.155,0.1548,0.1533,0.1541,0.1527,0.1533,0.1536,0.152,0.1521,0.1551,0.1547,0.1526,0.1582,0.1552,0.1556,0.1586,0.1594,0.1601,0.1617,0.1499,0,0,0,0,0,0.1572,0.1578,0.1566,0.1569,0.1573,0.1558,0.1557,0.155,0.1549,0.155,0.1545,0.1551,0.1568,0.1577,0.1587,0.1618,0.1646,0.1638,0.1646,0.1652,0.1667,0.1707,0.1719,0.1589,0.1589,0.1589,0,0,0.1575,0.1574,0.1574,0.1574,0.1573,0.1593,0.1557,0.1566,0.1585,0.1552,0.1579,0.1574,0.1581,0.1615,0.1629,0.1615,0.1716,0.1656,0.1661,0.1674,0.1712,0.1725,0.1736,0.1592,0.1591,0.1591,0,0,0.1598,0.1591,0.161,0.1618,0.1624,0.1621,0.1626,0.1618,0.162,0.1642,0.1628,0.1643,0.1659,0.1673,0.1682,0.1738,0.1749,0.1738,0.179,0.1828,0.1839,0.1849,0.1953,0.1971,0.1744,0.1744,0.1744,0,0.1604,0.1624,0.1616,0.1644,0.1654,0.1638,0.1665,0.1673,0.1672,0.168,0.1663,0.1693,0.1693,0.174,0.1761,0.1755,0.1797,0.1752,0.1837,0.1847,0.1856,0.196,0.1979,0.1747,0.1747,0.1747,0.1746,0,0.1646,0.1665,0.168,0.1711,0.1725,0.1745,0.1754,0.1768,0.1763,0.1762,0.1794,0.1793,0.1811,0.1814,0.1806,0.187,0.1891,0.1837,0.1813,0.1872,0.1979,0.1998,0.1751,0.175,0.175,0.1749,0,0,0.1646,0.1698,0.1704,0.1726,0.1761,0.1771,0.1819,0.1844,0.1867,0.1873,0.1905,0.193,0.1913,0.1924,0.1912,0.1945,0.2058,0.1925,0.1925,0.2027,0.2201,0.2382,0.2421,0.201,0.2012,0.2014,0.2268,0,0.1679,0.1739,0.1759,0.1812,0.1841,0.1853,0.1891,0.1915,0.193,0.1959,0.1967,0.1992,0.1961,0.197,0.2002,0.2034,0.2104,0.1998,0.213,0.2136,0.2286,0.2447,0.2509,0.2754,0.2287,0.229,0.2293,0,0.1715,0.175,0.1806,0.1854,0.1867,0.1895,0.1943,0.1975,0.202,0.2034,0.2065,0.2068,0.2138,0.2081,0.2207,0.2141,0.219,0.2215,0.2224,0.2387,0.2353,0.2609,0.2807,0.2692,0.2323,0.232,0.2318,0,0.1713,0.1779,0.182,0.1839,0.1894,0.1916,0.1943,0.199,0.202,0.2081,0.2123,0.2178,0.2237,0.2278,0.2375,0.2285,0.2534,0.2405,0.2631,0.2645,0.2726,0.2745,0.2826,0.251,0.2509,0.2509,0.2508,0,0.1735,0.1767,0.1817,0.1837,0.1869,0.1914,0.1949,0.1986,0.2053,0.2111,0.2154,0.2241,0.2285,0.2427,0.2453,0.2679,0.2615,0.2712,0.2739,0.2755,0.2773,0.2695,0.2642,0.2518,0.2516,0.2514,0.2513,0,0.1721,0.1763,0.1798,0.1853,0.1864,0.1881,0.1936,0.1967,0.2052,0.2141,0.2173,0.2332,0.2558,0.2667,0.2806,0.2841,0.2957,0.3062,0.3135,0.3169,0.3234,0.3184,0.3232,0.3154,0.3338,0.3344,0.335,0,0.1718,0.1737,0.1781,0.1788,0.1805,0.1836,0.1855,0.1937,0.1992,0.2205,0.2263,0.2535,0.273,0.3089,0.324,0.3442,0.3248,0.3593,0.3419,0.3331,0.3291,0.3053,0.2959,0.3557,0.3564,0.3569,0.3574,0,0.1694,0.1706,0.1728,0.1744,0.1758,0.1784,0.184,0.189,0.2025,0.2154,0.2393,0.258,0.3019,0.3294,0.363,0.3745,0.3489,0.3712,0.3567,0.348,0.3277,0.3183,0.3321,0.3621,0.3617,0.3613,0.3611,0.3609,0.1657,0.1661,0.1685,0.1701,0.1712,0.1751,0.1776,0.1878,0.2004,0.2218,0.2428,0.2718,0.3204,0.3708,0.3791,0.4047,0.3849,0.3973,0.3933,0.3702,0.3594,0.391,0.4259,0.4258,0.4257,0.4256,0.4255,0,0.1633,0.1643,0.1646,0.1672,0.168,0.1704,0.1777,0.182,0.1972,0.2219,0.2447,0.2974,0.3404,0.3766,0.4231,0.4204,0.3948,0.4158,0.3764,0.3663,0.3931,0.3905,0.4259,0.4259,0.4259,0.4259,0.426,0.426,0.1622,0.163,0.1647,0.165,0.1663,0.1674,0.1716,0.1793,0.195,0.2255,0.2537,0.278,0.338,0.4033,0.428,0.4255,0.388,0.3888,0.3693,0.3828,0.38,0.3773,0.3728,0.4039,0.4039,0.3283,0.3278,0.3274]},{"header":{"parameterUnit":"m.s-1","parameterCategory":2,"la1":30.2991,"la2":30.254,"lo1":-89.0895,"lo2":-89.0444,"dy":0.0017,"dx":0.0017,"nx":28,"ny":28,"refTime":"2025-08-18T09:00:00:Z","depth":"0","parameterNumber":3,"parameterNumberName":"V-component_of_CURRENTS"},"data":[0,0,0,0,0,0,0,0,0,0,0,0,0,0,0,0,0,0,0,0,0,0,0,0,0,0,0,0,0,0,0,0,0,0,0,0,0,0,0,0,0,0,0,0,0,0,0,0,0,0,0,0,0,0,0,0,0,0,-0.0447,-0.0447,0,-0.041,-0.041,-0.0409,-0.0362,-0.0362,-0.0361,-0.036,-0.0394,-0.0395,-0.0397,0,0,0,0,0,0,0,0,0,0,0,0,0,-0.0418,-0.0419,-0.0447,-0.0447,-0.0447,-0.041,-0.041,-0.0409,-0.0362,-0.0362,-0.0361,-0.036,-0.0393,-0.0395,-0.0397,0,0,0,0,0,0,0,0,0,0,0,0,0,-0.041,-0.0419,-0.0447,-0.042,-0.0417,-0.041,-0.041,-0.0409,-0.0363,-0.0362,-0.0361,-0.036,-0.0393,-0.0395,-0.0397,-0.043,0,0,-0.0404,-0.0405,0,0,0,0,0,0,0,0,-0.041,-0.0411,-0.0424,-0.0422,-0.0419,-0.0391,-0.0412,-0.042,-0.0363,-0.0382,-0.036,-0.0359,-0.0401,-0.0403,-0.0395,-0.0431,-0.0433,-0.0404,-0.0406,-0.0406,-0.0407,0,0,0,0,0,0,0,-0.0411,-0.0412,-0.0431,-0.0424,-0.0421,-0.0389,-0.0387,-0.0412,-0.0398,-0.038,-0.0377,-0.0375,-0.04,-0.0393,-0.0395,-0.0433,-0.0404,-0.0406,-0.0407,-0.0408,-0.0508,-0.0509,0,0,0,0,0,0,-0.0423,-0.0413,-0.0432,-0.043,-0.0414,-0.0391,-0.0389,-0.04,-0.0396,-0.0394,-0.0376,-0.0373,-0.0389,-0.0393,-0.0397,-0.0435,-0.0406,-0.0409,-0.041,-0.0507,-0.0508,-0.051,0,0,0,0,0,0,-0.0423,-0.0426,-0.0434,-0.0421,-0.042,-0.0393,-0.0405,-0.04,-0.0392,-0.0392,-0.0391,-0.0375,-0.0389,-0.0394,-0.0418,-0.0436,-0.041,-0.0412,-0.0505,-0.0507,-0.0509,-0.0512,0,0,0,0,0,0,-0.0422,-0.0426,-0.0434,-0.0422,-0.0421,-0.0434,-0.0406,-0.04,-0.0393,-0.0389,-0.0391,-0.0393,-0.0388,-0.0414,-0.042,-0.0438,-0.0413,-0.0504,-0.0506,-0.0508,-0.051,-0.0514,-0.0517,0,0,0,0,0,-0.0422,-0.0433,-0.0435,-0.0437,-0.0435,-0.0435,-0.0431,-0.0407,-0.0394,-0.0396,-0.0395,-0.0393,-0.0434,-0.0417,-0.0423,-0.0443,-0.0502,-0.0505,-0.0508,-0.0509,-0.0513,-0.0517,0,0,0,0,0,0,-0.0416,-0.0429,-0.0431,-0.0444,-0.0444,-0.0427,-0.0424,-0.0414,-0.0413,-0.0411,-0.0407,-0.0409,-0.0436,-0.0447,-0.0428,-0.0481,-0.047,-0.0474,-0.0468,-0.0473,-0.0476,-0.047,-0.0415,0,0,0,0,0,-0.0424,-0.0439,-0.0444,-0.0453,-0.0458,-0.0446,-0.0441,-0.0432,-0.043,-0.0426,-0.0428,-0.0439,-0.0455,-0.0468,-0.0482,-0.0516,-0.0509,-0.0536,-0.0539,-0.0542,-0.0543,-0.0559,-0.0563,-0.052,-0.0519,-0.0519,0,0,-0.0421,-0.0432,-0.0437,-0.0454,-0.0451,-0.0457,-0.044,-0.0442,-0.0444,-0.0436,-0.0441,-0.0451,-0.0467,-0.0492,-0.0507,-0.0503,-0.0546,-0.0545,-0.0547,-0.0547,-0.0562,-0.0566,-0.057,-0.0522,-0.0521,-0.0521,0,0,-0.042,-0.044,-0.045,-0.0458,-0.0467,-0.0465,-0.0471,-0.0468,-0.0464,-0.0479,-0.0472,-0.0492,-0.0517,-0.0526,-0.0536,-0.0575,-0.056,-0.0586,-0.06,-0.0615,-0.0618,-0.0621,-0.0591,-0.0591,-0.059,-0.059,-0.059,0,-0.0412,-0.0434,-0.045,-0.0462,-0.0465,-0.0473,-0.0479,-0.0483,-0.0485,-0.0487,-0.0485,-0.0515,-0.0532,-0.0557,-0.0569,-0.0581,-0.0571,-0.0578,-0.0617,-0.062,-0.0623,-0.0592,-0.0592,-0.0591,-0.0591,-0.0591,-0.0591,0,-0.0418,-0.0436,-0.0444,-0.0466,-0.0474,-0.0484,-0.0498,-0.0506,-0.051,-0.0509,-0.0533,-0.0552,-0.0564,-0.0584,-0.0589,-0.0622,-0.06,-0.0613,-0.06,-0.0627,-0.0593,-0.0592,-0.0592,-0.0591,-0.0591,-0.0591,0,0,-0.0395,-0.0439,-0.044,-0.0451,-0.048,-0.0483,-0.0503,-0.0515,-0.0506,-0.0537,-0.0522,-0.0582,-0.0583,-0.0597,-0.061,-0.0637,-0.0644,-0.0636,-0.0637,-0.0593,-0.0642,-0.0553,-0.0544,-0.0663,-0.0664,-0.0665,-0.0599,0,-0.0391,-0.0417,-0.0438,-0.0453,-0.0469,-0.0487,-0.0492,-0.0507,-0.0512,-0.0499,-0.0541,-0.053,-0.0591,-0.0577,-0.0626,-0.0622,-0.0649,-0.0658,-0.0635,-0.0633,-0.0541,-0.0544,-0.0455,-0.0384,-0.0599,-0.0599,-0.0599,0,-0.0387,-0.0407,-0.0427,-0.0448,-0.0453,-0.0457,-0.046,-0.0462,-0.0464,-0.0459,-0.0482,-0.0486,-0.0519,-0.0558,-0.0611,-0.061,-0.0637,-0.0651,-0.0649,-0.0566,-0.0546,-0.04,-0.0376,-0.0611,-0.0599,-0.0599,-0.0599,0,-0.0367,-0.0395,-0.0412,-0.0422,-0.0446,-0.0446,-0.0447,-0.045,-0.0406,-0.0412,-0.0344,-0.0433,-0.0379,-0.0489,-0.0512,-0.0564,-0.0534,-0.0606,-0.0557,-0.0549,-0.0469,-0.0453,-0.0658,-0.0659,-0.0659,-0.0659,-0.0659,0,-0.0362,-0.0373,-0.04,-0.041,-0.0396,-0.042,-0.038,-0.0388,-0.0331,-0.0212,-0.0304,-0.0188,-0.0355,-0.0342,-0.0464,-0.0467,-0.0496,-0.0548,-0.0532,-0.0464,-0.0449,-0.0646,-0.0816,-0.0657,-0.0657,-0.0658,-0.0658,0,-0.0346,-0.0371,-0.038,-0.0397,-0.039,-0.0376,-0.0302,-0.024,-0.0204,-0.0036,-0.0007,0.003,0.0063,-0.0082,-0.0176,-0.0313,-0.0485,-0.0387,-0.0267,-0.024,-0.0464,-0.0635,-0.0734,-0.0877,-0.0362,-0.036,-0.0358,0,-0.0346,-0.0353,-0.0355,-0.0324,-0.0327,-0.029,-0.0225,-0.0186,-0.0057,0.015,0.0286,0.0359,0.0505,0.0386,0.0134,-0.0052,-0.0311,-0.0125,-0.0244,-0.0456,-0.0637,-0.0717,-0.084,-0.013,-0.0126,-0.0123,-0.0121,0,-0.0326,-0.0325,-0.0321,-0.0248,-0.0186,-0.0097,0.0025,0.0165,0.031,0.0497,0.0811,0.0941,0.0858,0.0768,0.0479,0.0291,-0.0292,-0.0066,-0.0336,-0.0514,-0.0565,-0.0697,-0.0177,-0.0093,-0.0096,-0.0098,-0.0099,-0.01,-0.0285,-0.0257,-0.021,-0.0126,-0.004,0.0169,0.0342,0.054,0.0826,0.1213,0.1257,0.156,0.1327,0.097,0.0616,0.0035,-0.007,-0.0164,-0.0357,-0.0418,-0.0566,0.0043,0.0168,0.0167,0.0166,0.0165,0.0164,0,-0.0166,-0.0123,-0.0064,0.0097,0.0282,0.0286,0.0585,0.0829,0.1266,0.1561,0.1861,0.2063,0.1656,0.1138,0.0376,-0.0146,-0.0407,-0.0468,-0.0632,-0.0758,-0.0238,-0.0242,-0.0138,-0.0138,-0.0138,-0.0138,-0.0138,-0.0137,-0.0088,0.0024,0.007,0.0399,0.0537,0.0874,0.1095,0.1414,0.1697,0.2208,0.2505,0.2675,0.243,0.0956,-0.0162,-0.0517,-0.102,-0.1022,-0.1336,-0.1058,-0.1048,-0.1037,-0.1083,-0.1158,-0.1159,-0.1746,-0.1753,-0.1758]}],[{"header":{"parameterUnit":"m.s-1","parameterCategory":2,"la1":30.2991,"la2":30.254,"lo1":-89.0895,"lo2":-89.0444,"dy":0.0017,"dx":0.0017,"nx":28,"ny":28,"refTime":"2025-08-18T09:00:00:Z","depth":"2","parameterNumber":2,"parameterNumberName":"U-component_of_CURRENTS"},"data":[0,0,0,0,0,0,0,0,0,0,0,0,0,0,0,0,0,0,0,0,0,0,0,0,0,0,0,0,0,0,0,0,0,0,0,0,0,0,0,0,0,0,0,0,0,0,0,0,0,0,0,0,0,0,0,0,0,0,0.1617,0.1618,0,0.1708,0.1709,0.1709,0.173,0.173,0.1729,0.1729,0.1695,0.1695,0.1694,0,0,0,0,0,0,0,0,0,0,0,0,0,0.15,0.1501,0.1617,0.1618,0.162,0.1708,0.1709,0.171,0.173,0.173,0.1729,0.1729,0.1695,0.1695,0.1694,0,0,0,0,0,0,0,0,0,0,0,0,0,0.1563,0.1502,0.1617,0.1643,0.1647,0.1707,0.1709,0.171,0.173,0.173,0.1729,0.1729,0.1696,0.1695,0.1694,0.1698,0,0,0.1691,0.1691,0,0,0,0,0,0,0,0,0.1559,0.1567,0.1638,0.1641,0.1646,0.171,0.1655,0.1701,0.173,0.1695,0.1729,0.1728,0.1691,0.1691,0.1706,0.1696,0.1695,0.1691,0.169,0.169,0.169,0,0,0,0,0,0,0,0.1555,0.1563,0.1649,0.1639,0.1644,0.1664,0.1672,0.1664,0.1689,0.1698,0.17,0.1716,0.1692,0.1707,0.1705,0.1694,0.1691,0.169,0.169,0.1689,0.174,0.1742,0,0,0,0,0,0,0.155,0.1559,0.1647,0.1652,0.1604,0.1667,0.1675,0.1687,0.1692,0.1695,0.1716,0.1717,0.1708,0.1706,0.1703,0.1741,0.169,0.1689,0.1689,0.1738,0.1741,0.1743,0,0,0,0,0,0,0.1547,0.1556,0.1643,0.1611,0.1624,0.1669,0.1682,0.1689,0.171,0.1709,0.1708,0.1731,0.1708,0.1705,0.1717,0.1738,0.1689,0.1688,0.1736,0.1739,0.1742,0.1794,0,0,0,0,0,0,0.1543,0.1554,0.156,0.161,0.1625,0.1689,0.1684,0.1691,0.1721,0.1723,0.172,0.1717,0.1707,0.1718,0.1716,0.1736,0.1687,0.1734,0.1737,0.1741,0.179,0.1798,0.1806,0,0,0,0,0,0.1538,0.1556,0.1559,0.157,0.1631,0.1691,0.17,0.1728,0.1723,0.1742,0.1744,0.1717,0.1739,0.1719,0.1716,0.1736,0.1732,0.1736,0.174,0.1786,0.1797,0.1805,0,0,0,0,0,0,0.1512,0.1561,0.1566,0.1597,0.1643,0.1696,0.1718,0.1733,0.1752,0.1747,0.1735,0.1733,0.1755,0.1742,0.172,0.1765,0.1733,0.1737,0.177,0.1779,0.1787,0.1793,0.1687,0,0,0,0,0,0.1508,0.153,0.1582,0.1608,0.1629,0.1671,0.1696,0.1718,0.1745,0.1754,0.1755,0.1759,0.1771,0.1771,0.1779,0.1794,0.1807,0.1809,0.1817,0.1823,0.1829,0.186,0.187,0.1756,0.1756,0.1756,0,0,0.1506,0.1536,0.1548,0.1604,0.1636,0.1684,0.1684,0.1731,0.1767,0.1744,0.1781,0.1783,0.1784,0.1812,0.182,0.1801,0.1873,0.1829,0.1834,0.1836,0.1865,0.1876,0.1886,0.1759,0.1759,0.1758,0,0,0.1526,0.1539,0.1569,0.1608,0.1664,0.1695,0.1709,0.1763,0.1781,0.1818,0.1818,0.1838,0.1847,0.1865,0.1871,0.1925,0.1915,0.1924,0.1962,0.1992,0.2001,0.2009,0.2078,0.2091,0.1925,0.1925,0.1925,0,0.1519,0.1565,0.1589,0.1634,0.167,0.17,0.1748,0.1779,0.183,0.1848,0.1835,0.1882,0.1878,0.1923,0.1947,0.1941,0.1966,0.1922,0.2001,0.2009,0.2016,0.2084,0.2098,0.1928,0.1928,0.1927,0.1927,0,0.1569,0.1606,0.163,0.1691,0.1731,0.1779,0.1826,0.1859,0.1874,0.1903,0.1947,0.1954,0.1981,0.1988,0.1981,0.2038,0.2045,0.2008,0.1972,0.2031,0.2099,0.2113,0.1932,0.1931,0.193,0.193,0,0,0.1555,0.1645,0.1654,0.1688,0.1764,0.1803,0.186,0.1922,0.1953,0.199,0.2032,0.2066,0.2065,0.2074,0.2072,0.2097,0.2182,0.2076,0.2076,0.2137,0.2282,0.2277,0.2292,0.2151,0.2153,0.2154,0.2322,0,0.1586,0.1672,0.1711,0.1788,0.1835,0.1876,0.1925,0.1979,0.2011,0.2056,0.2077,0.211,0.2099,0.2106,0.2138,0.2167,0.2215,0.2142,0.2222,0.2226,0.2207,0.2306,0.209,0.2219,0.2336,0.2338,0.234,0,0.1624,0.1676,0.1752,0.1833,0.1855,0.1895,0.1966,0.2014,0.2079,0.2101,0.2144,0.216,0.2227,0.2184,0.2292,0.2244,0.2275,0.2294,0.23,0.2281,0.2245,0.2173,0.224,0.2363,0.2361,0.2359,0.2358,0,0.1604,0.1704,0.1759,0.179,0.1883,0.1909,0.195,0.2018,0.2059,0.2122,0.2166,0.2229,0.2278,0.2316,0.2397,0.2335,0.2518,0.243,0.2469,0.247,0.2296,0.2278,0.2504,0.2504,0.2504,0.2503,0.2503,0,0.1621,0.1665,0.1747,0.1775,0.1821,0.189,0.1934,0.1982,0.2059,0.213,0.2178,0.2267,0.2309,0.2424,0.2447,0.2546,0.2572,0.251,0.2516,0.2314,0.2297,0.2408,0.2395,0.251,0.2508,0.2507,0.2506,0,0.1586,0.1648,0.1703,0.1788,0.1809,0.1831,0.1911,0.1949,0.2037,0.2135,0.2163,0.232,0.248,0.2562,0.2664,0.2633,0.27,0.2726,0.2519,0.2495,0.2614,0.2601,0.275,0.2751,0.2752,0.2753,0.2754,0,0.1577,0.1603,0.168,0.1695,0.1723,0.177,0.1803,0.1903,0.1971,0.2189,0.2253,0.2447,0.2577,0.2764,0.2757,0.2821,0.284,0.2633,0.2454,0.265,0.2641,0.2626,0.2613,0.2264,0.226,0.2258,0.2255,0,0.1537,0.1557,0.1592,0.1632,0.166,0.1716,0.1794,0.1853,0.2012,0.2133,0.2359,0.2476,0.2663,0.2644,0.272,0.2703,0.259,0.2579,0.2853,0.2233,0.2204,0.2191,0.2191,0.2231,0.2234,0.2235,0.2237,0.2238,0.1483,0.1489,0.1532,0.1571,0.1607,0.1684,0.1736,0.185,0.1984,0.2143,0.2303,0.2396,0.2451,0.2455,0.2439,0.241,0.2546,0.2379,0.2382,0.2389,0.23,0.2274,0.2301,0.2304,0.2306,0.2309,0.231,0,0.1435,0.1461,0.1479,0.1541,0.1582,0.1632,0.1752,0.177,0.1923,0.2038,0.2157,0.2011,0.203,0.2124,0.204,0.2035,0.194,0.1954,0.1803,0.1831,0.1855,0.1732,0.1587,0.1584,0.1582,0.158,0,0,0.1411,0.1424,0.1452,0.1517,0.1569,0.1641,0.1718,0.1711,0.1769,0.1765,0.1797,0.1875,0.2035,0.176,0.1748,0.1669,0.172,0.1599,0.2185,0.2035,0.2056,0.2117,0.1964,0,0,0,0,0]},{"header":{"parameterUnit":"m.s-1","parameterCategory":2,"la1":30.2991,"la2":30.254,"lo1":-89.0895,"lo2":-89.0444,"dy":0.0017,"dx":0.0017,"nx":28,"ny":28,"refTime":"2025-08-18T09:00:00:Z","depth":"2","parameterNumber":3,"parameterNumberName":"V-component_of_CURRENTS"},"data":[0,0,0,0,0,0,0,0,0,0,0,0,0,0,0,0,0,0,0,0,0,0,0,0,0,0,0,0,0,0,0,0,0,0,0,0,0,0,0,0,0,0,0,0,0,0,0,0,0,0,0,0,0,0,0,0,0,0,-0.0267,-0.0267,0,-0.0291,-0.0291,-0.0291,-0.032,-0.032,-0.0321,-0.0321,-0.036,-0.0361,-0.0361,0,0,0,0,0,0,0,0,0,0,0,0,0,-0.0202,-0.0203,-0.0267,-0.0267,-0.0268,-0.029,-0.0291,-0.0291,-0.032,-0.032,-0.0321,-0.0321,-0.036,-0.0361,-0.0362,0,0,0,0,0,0,0,0,0,0,0,0,0,-0.0229,-0.0204,-0.0267,-0.0285,-0.0286,-0.029,-0.0291,-0.0291,-0.032,-0.032,-0.0321,-0.0322,-0.036,-0.0361,-0.0362,-0.0354,0,0,-0.0365,-0.0365,0,0,0,0,0,0,0,0,-0.0227,-0.0231,-0.0282,-0.0283,-0.0285,-0.0303,-0.0282,-0.0313,-0.032,-0.0307,-0.0321,-0.0322,-0.0342,-0.0344,-0.0347,-0.0356,-0.0358,-0.0365,-0.0365,-0.0366,-0.0366,0,0,0,0,0,0,0,-0.0225,-0.023,-0.0277,-0.0282,-0.0284,-0.0276,-0.0281,-0.0288,-0.0321,-0.0308,-0.0311,-0.0313,-0.0343,-0.0346,-0.0349,-0.0358,-0.0365,-0.0365,-0.0366,-0.0366,-0.0373,-0.0372,0,0,0,0,0,0,-0.0224,-0.0229,-0.0276,-0.0277,-0.0257,-0.0277,-0.0282,-0.0297,-0.0321,-0.0325,-0.0312,-0.0314,-0.0344,-0.0347,-0.035,-0.0346,-0.0366,-0.0366,-0.0367,-0.0373,-0.0373,-0.0372,0,0,0,0,0,0,-0.0223,-0.0228,-0.0275,-0.0252,-0.0258,-0.0277,-0.0293,-0.0297,-0.0302,-0.0323,-0.0328,-0.0314,-0.0345,-0.0349,-0.0352,-0.0348,-0.0367,-0.0368,-0.0374,-0.0373,-0.0372,-0.0337,0,0,0,0,0,0,-0.0221,-0.0228,-0.0236,-0.0253,-0.0259,-0.027,-0.0293,-0.0297,-0.0302,-0.0305,-0.0326,-0.0331,-0.0346,-0.035,-0.0353,-0.035,-0.0368,-0.0374,-0.0373,-0.0373,-0.0338,-0.0335,-0.0332,0,0,0,0,0,-0.0219,-0.0221,-0.0237,-0.0242,-0.0271,-0.0269,-0.0271,-0.0287,-0.0302,-0.0296,-0.0313,-0.033,-0.0348,-0.035,-0.0354,-0.0351,-0.0374,-0.0374,-0.0373,-0.034,-0.0336,-0.0332,0,0,0,0,0,0,-0.0191,-0.0225,-0.0242,-0.0255,-0.026,-0.0274,-0.0273,-0.0284,-0.0293,-0.0299,-0.0321,-0.0326,-0.0327,-0.0342,-0.0344,-0.035,-0.0365,-0.0365,-0.0339,-0.0336,-0.0332,-0.0341,-0.0369,0,0,0,0,0,-0.0191,-0.0206,-0.0228,-0.0235,-0.0241,-0.0258,-0.026,-0.027,-0.028,-0.0285,-0.0299,-0.0316,-0.0325,-0.0332,-0.034,-0.0342,-0.037,-0.0343,-0.034,-0.0337,-0.0346,-0.0377,-0.0378,-0.0369,-0.0369,-0.0369,0,0,-0.0179,-0.0201,-0.0208,-0.023,-0.0241,-0.0237,-0.0261,-0.0261,-0.0258,-0.0287,-0.0287,-0.0301,-0.0321,-0.0323,-0.0325,-0.0336,-0.0353,-0.0336,-0.0334,-0.0344,-0.0377,-0.0378,-0.0379,-0.0369,-0.0369,-0.0369,0,0,-0.0152,-0.0186,-0.0186,-0.0193,-0.0208,-0.0218,-0.0217,-0.0231,-0.024,-0.024,-0.0261,-0.0274,-0.0285,-0.0301,-0.0311,-0.0296,-0.0331,-0.0297,-0.0292,-0.0322,-0.0323,-0.0325,-0.0356,-0.0361,-0.03,-0.03,-0.0299,0,-0.0136,-0.0147,-0.018,-0.0178,-0.0179,-0.0208,-0.0196,-0.0206,-0.0216,-0.0224,-0.0235,-0.0263,-0.0278,-0.0289,-0.0288,-0.0289,-0.0315,-0.0304,-0.0319,-0.0321,-0.0323,-0.0355,-0.0361,-0.0298,-0.0298,-0.0298,-0.0298,0,-0.0106,-0.0116,-0.0113,-0.0129,-0.0132,-0.0126,-0.0147,-0.0152,-0.017,-0.0186,-0.0201,-0.0226,-0.0249,-0.0251,-0.0268,-0.0287,-0.0302,-0.0307,-0.0329,-0.0322,-0.0356,-0.0362,-0.0295,-0.0296,-0.0296,-0.0297,0,0,-0.007,-0.0089,-0.009,-0.0087,-0.0108,-0.0103,-0.0107,-0.0117,-0.0121,-0.0147,-0.0154,-0.0184,-0.0215,-0.0229,-0.0252,-0.028,-0.0315,-0.0303,-0.0306,-0.0336,-0.0387,-0.0381,-0.0388,-0.0324,-0.0325,-0.0326,-0.0403,0,-0.0036,-0.0019,-0.0043,-0.0022,-0.0013,-0.0046,-0.0045,-0.0062,-0.0084,-0.0098,-0.0146,-0.0162,-0.0202,-0.0214,-0.0252,-0.029,-0.0332,-0.0294,-0.0389,-0.0392,-0.0389,-0.0395,-0.0374,-0.0439,-0.0409,-0.041,-0.0411,0,-0.0001,0.0005,0.0028,0.0027,0.0026,0.0026,0.0015,0.0011,-0.0027,-0.0046,-0.0089,-0.0125,-0.0176,-0.0206,-0.0301,-0.0276,-0.0339,-0.0376,-0.038,-0.0395,-0.0398,-0.0443,-0.0452,-0.0422,-0.0422,-0.0421,-0.042,0,0.0047,0.0054,0.0073,0.0073,0.0065,0.0059,0.0048,0.002,0.0027,-0.0024,-0.0015,-0.01,-0.0118,-0.0217,-0.0299,-0.0309,-0.0394,-0.0414,-0.0475,-0.0475,-0.0487,-0.0487,-0.0498,-0.0498,-0.0498,-0.0497,-0.0497,0,0.0093,0.0108,0.0091,0.0102,0.0119,0.0093,0.0103,0.0079,0.0065,0.01,0.0007,0.0031,-0.0121,-0.0179,-0.0287,-0.0391,-0.0392,-0.0483,-0.0497,-0.0472,-0.047,-0.0479,-0.0475,-0.05,-0.05,-0.0499,-0.0499,0,0.0142,0.0132,0.0153,0.0145,0.0139,0.0146,0.0144,0.0162,0.0138,0.0184,0.0175,0.0122,0.0043,-0.0101,-0.0243,-0.035,-0.0464,-0.0504,-0.0465,-0.0473,-0.0538,-0.0532,-0.0603,-0.0603,-0.0604,-0.0604,-0.0604,0,0.0169,0.0184,0.0186,0.0196,0.0185,0.0191,0.0204,0.0189,0.0235,0.0269,0.0319,0.0246,0.0235,0.0013,-0.0209,-0.0421,-0.0441,-0.0536,-0.0558,-0.0544,-0.055,-0.0543,-0.0537,-0.0563,-0.0563,-0.0563,-0.0563,0,0.0219,0.0211,0.0228,0.025,0.0261,0.0303,0.0334,0.0389,0.0416,0.0465,0.0546,0.0531,0.0315,0.0106,-0.02,-0.0338,-0.0508,-0.0541,-0.0538,-0.0529,-0.0509,-0.0514,-0.0509,-0.0562,-0.0562,-0.0562,-0.0562,-0.0562,0.0243,0.0266,0.028,0.0309,0.0342,0.043,0.0484,0.0559,0.0654,0.0753,0.0723,0.0709,0.0433,0.0052,-0.0203,-0.0483,-0.0491,-0.059,-0.0589,-0.0588,-0.0559,-0.054,-0.0594,-0.0594,-0.0595,-0.0595,-0.0595,0,0.0272,0.0297,0.0336,0.0391,0.0467,0.0474,0.0587,0.0652,0.0794,0.0877,0.0916,0.0688,0.0431,0.0136,-0.0285,-0.0541,-0.0562,-0.0603,-0.0584,-0.0583,-0.0583,-0.0552,-0.0587,-0.0587,-0.0587,-0.0588,0,0,0.028,0.0328,0.0362,0.0492,0.055,0.0656,0.0736,0.0835,0.0905,0.0989,0.0991,0.0897,0.0531,0.0236,-0.0122,-0.0349,-0.0398,-0.0386,-0.037,-0.0306,-0.0301,-0.0559,-0.051,0,0,0,0,0]}],[{"header":{"parameterUnit":"m.s-1","parameterCategory":2,"la1":30.2991,"la2":30.254,"lo1":-89.0895,"lo2":-89.0444,"dy":0.0017,"dx":0.0017,"nx":28,"ny":28,"refTime":"2025-08-18T09:00:00:Z","depth":"4","parameterNumber":2,"parameterNumberName":"U-component_of_CURRENTS"},"data":[0,0,0,0,0,0,0,0,0,0,0,0,0,0,0,0,0,0,0,0,0,0,0,0,0,0,0,0,0,0,0,0,0,0,0,0,0,0,0,0,0,0,0,0,0,0,0,0,0,0,0,0,0,0,0,0,0,0,0.0878,0.0878,0,0.0912,0.0912,0.0912,0.0947,0.0948,0.0949,0.095,0.0973,0.0973,0.0973,0,0,0,0,0,0,0,0,0,0,0,0,0,0.0783,0.0784,0.0877,0.0878,0.0879,0.0912,0.0912,0.0912,0.0947,0.0948,0.0949,0.095,0.0973,0.0973,0.0973,0,0,0,0,0,0,0,0,0,0,0,0,0,0.0816,0.0785,0.0877,0.0904,0.0907,0.0912,0.0912,0.0912,0.0946,0.0948,0.0949,0.095,0.0973,0.0973,0.0973,0.0943,0,0,0.0972,0.0972,0,0,0,0,0,0,0,0,0.0815,0.0819,0.0899,0.0902,0.0906,0.0931,0.0888,0.0923,0.0946,0.0926,0.095,0.0951,0.096,0.0961,0.0958,0.0944,0.0945,0.0972,0.0971,0.0971,0.0971,0,0,0,0,0,0,0,0.0812,0.0818,0.0886,0.09,0.0904,0.0895,0.0901,0.0894,0.0931,0.0928,0.0932,0.0943,0.0962,0.0958,0.0958,0.0945,0.0972,0.0971,0.0971,0.0971,0.0995,0.0996,0,0,0,0,0,0,0.082,0.0816,0.0885,0.0888,0.0868,0.0896,0.0903,0.0917,0.0931,0.0937,0.0942,0.0945,0.0958,0.0959,0.0959,0.1019,0.0971,0.0971,0.0971,0.0995,0.0996,0.0996,0,0,0,0,0,0,0.0818,0.0826,0.0884,0.0856,0.0864,0.0897,0.0913,0.0917,0.0946,0.0943,0.0947,0.097,0.0959,0.096,0.0986,0.1016,0.0971,0.0971,0.0993,0.0995,0.0996,0.1077,0,0,0,0,0,0,0.0815,0.0825,0.0842,0.0857,0.0866,0.0909,0.0912,0.0917,0.0951,0.0956,0.0967,0.0969,0.096,0.0986,0.0985,0.1015,0.097,0.0992,0.0994,0.0996,0.1073,0.1081,0.1087,0,0,0,0,0,0.0811,0.083,0.0842,0.0851,0.0887,0.091,0.0914,0.0937,0.0951,0.0967,0.0981,0.0971,0.0996,0.0987,0.0985,0.1016,0.0992,0.0994,0.0995,0.107,0.1079,0.1087,0,0,0,0,0,0,0.0797,0.0836,0.085,0.088,0.0905,0.0919,0.0938,0.0952,0.0973,0.0985,0.0981,0.0984,0.1017,0.1,0.0991,0.1026,0.0992,0.0993,0.1049,0.1057,0.1064,0.109,0.097,0,0,0,0,0,0.0802,0.0828,0.0859,0.0885,0.0902,0.0923,0.0939,0.0957,0.0976,0.0988,0.0999,0.1006,0.1015,0.1027,0.1026,0.1044,0.1045,0.1061,0.1068,0.1075,0.1094,0.112,0.1133,0.1003,0.1003,0.1003,0,0,0.0802,0.0829,0.0843,0.0884,0.0904,0.0931,0.0936,0.0971,0.0999,0.0985,0.1029,0.1032,0.1025,0.1051,0.1064,0.1048,0.1111,0.1077,0.1083,0.1099,0.1124,0.1137,0.1148,0.1004,0.1004,0.1004,0,0,0.0809,0.0844,0.0866,0.0892,0.0935,0.0951,0.097,0.1003,0.1028,0.1062,0.1063,0.1092,0.1099,0.1109,0.1111,0.1154,0.1146,0.1152,0.1214,0.124,0.1252,0.1262,0.1279,0.129,0.1158,0.1158,0.1158,0,0.0804,0.0844,0.0874,0.0903,0.0931,0.0966,0.0995,0.1022,0.106,0.1086,0.109,0.113,0.1128,0.1166,0.1192,0.1173,0.1186,0.1185,0.1252,0.1262,0.1271,0.1286,0.1297,0.1162,0.1162,0.1161,0.1161,0,0.0827,0.0863,0.0882,0.0932,0.0963,0.0997,0.1041,0.1079,0.1115,0.1142,0.1199,0.1206,0.1233,0.1238,0.1236,0.1299,0.1286,0.1257,0.1235,0.1289,0.1301,0.1311,0.1168,0.1167,0.1165,0.1164,0,0,0.0796,0.0879,0.0887,0.0917,0.0985,0.1009,0.1068,0.1126,0.1171,0.1218,0.1272,0.1311,0.1331,0.1336,0.1336,0.1373,0.145,0.136,0.1359,0.1387,0.1516,0.1439,0.1442,0.1441,0.1444,0.1445,0.1499,0,0.0803,0.0855,0.0903,0.0958,0.0989,0.1048,0.1096,0.1156,0.1211,0.1271,0.1312,0.1359,0.1362,0.1387,0.1429,0.1448,0.1482,0.1438,0.1451,0.1452,0.1385,0.1453,0.1452,0.1506,0.1509,0.151,0.1511,0,0.0807,0.0845,0.0896,0.0975,0.0996,0.1037,0.1127,0.1181,0.1274,0.1318,0.1387,0.1418,0.1499,0.1476,0.1561,0.154,0.1544,0.1551,0.1552,0.1463,0.1394,0.1439,0.153,0.1528,0.1527,0.1526,0.1524,0,0.076,0.0839,0.0881,0.0908,0.1,0.1042,0.1102,0.1196,0.1253,0.1359,0.1411,0.1493,0.1545,0.1584,0.1623,0.1603,0.1698,0.1653,0.1582,0.1576,0.1592,0.158,0.1699,0.1699,0.1699,0.1699,0.1699,0,0.0742,0.0774,0.0865,0.0886,0.0944,0.1024,0.1103,0.1171,0.1278,0.1349,0.144,0.1498,0.1581,0.1641,0.1654,0.1667,0.1722,0.1617,0.1595,0.1622,0.1614,0.1599,0.1587,0.1701,0.17,0.17,0.1699,0,0.0677,0.074,0.0787,0.0885,0.0923,0.0966,0.11,0.1155,0.1269,0.1366,0.1406,0.1531,0.1618,0.1676,0.1737,0.1698,0.1712,0.1688,0.1734,0.1708,0.1562,0.1553,0.1621,0.1619,0.1617,0.1616,0.1614,0,0.0647,0.0662,0.0765,0.0801,0.0851,0.0938,0.0998,0.1131,0.1193,0.1372,0.1403,0.1533,0.1603,0.164,0.17,0.1723,0.1693,0.1684,0.1616,0.1588,0.156,0.1553,0.1547,0.1612,0.1611,0.1611,0.161,0,0.0576,0.0616,0.0656,0.0736,0.0804,0.0877,0.0977,0.1017,0.1175,0.1282,0.1379,0.1444,0.1535,0.1592,0.1625,0.163,0.1689,0.1665,0.1667,0.1604,0.1578,0.155,0.1545,0.1604,0.1605,0.1606,0.1606,0,0.0517,0.053,0.0597,0.0668,0.0747,0.0811,0.0871,0.0964,0.1049,0.1241,0.1267,0.1411,0.1518,0.1544,0.1576,0.1587,0.1554,0.1492,0.1503,0.151,0.1451,0.1401,0.1375,0,0,0,0,0,0.0456,0.0482,0.0534,0.0615,0.0691,0.075,0.0859,0.0924,0.1071,0.1107,0.1189,0.1271,0.1356,0.1425,0.1414,0.1521,0.1551,0.15,0.1482,0.1571,0.1578,0.152,0,0,0,0,0,0,0.0422,0.0459,0.0508,0.0566,0.0615,0.0697,0.0769,0.0861,0.0891,0.1036,0.1085,0.1192,0.1284,0.1348,0.1388,0.1408,0.1371,0.1583,0.158,0.1567,0.1574,0.1579,0.1521,0,0,0,0,0]},{"header":{"parameterUnit":"m.s-1","parameterCategory":2,"la1":30.2991,"la2":30.254,"lo1":-89.0895,"lo2":-89.0444,"dy":0.0017,"dx":0.0017,"nx":28,"ny":28,"refTime":"2025-08-18T09:00:00:Z","depth":"4","parameterNumber":3,"parameterNumberName":"V-component_of_CURRENTS"},"data":[0,0,0,0,0,0,0,0,0,0,0,0,0,0,0,0,0,0,0,0,0,0,0,0,0,0,0,0,0,0,0,0,0,0,0,0,0,0,0,0,0,0,0,0,0,0,0,0,0,0,0,0,0,0,0,0,0,0,0.0018,0.0018,0,0.0,-0.0,-0.0,-0.0041,-0.0042,-0.0043,-0.0043,-0.0093,-0.0093,-0.0093,0,0,0,0,0,0,0,0,0,0,0,0,0,0.0033,0.0033,0.0018,0.0018,0.0017,0.0,-0.0,-0.0,-0.0041,-0.0042,-0.0043,-0.0044,-0.0092,-0.0093,-0.0093,0,0,0,0,0,0,0,0,0,0,0,0,0,0.0022,0.0033,0.0018,-0.0005,-0.0008,0.0,-0.0,-0.0,-0.004,-0.0042,-0.0043,-0.0044,-0.0092,-0.0093,-0.0094,-0.0071,0,0,-0.0096,-0.0096,0,0,0,0,0,0,0,0,0.0023,0.0022,-0.0002,-0.0004,-0.0006,-0.002,-0.0013,-0.0026,-0.004,-0.0027,-0.0043,-0.0045,-0.0071,-0.0073,-0.0072,-0.0073,-0.0075,-0.0096,-0.0096,-0.0097,-0.0097,0,0,0,0,0,0,0,0.0024,0.0023,0.0012,-0.0002,-0.0005,-0.001,-0.0013,-0.0015,-0.0041,-0.0028,-0.0032,-0.0034,-0.0072,-0.0071,-0.0074,-0.0076,-0.0096,-0.0096,-0.0097,-0.0097,-0.0096,-0.0095,0,0,0,0,0,0,0.0025,0.0023,0.0012,0.0011,0.0005,-0.0009,-0.0012,-0.0014,-0.0041,-0.0046,-0.0033,-0.0036,-0.0069,-0.0073,-0.0076,-0.0061,-0.0097,-0.0097,-0.0098,-0.0096,-0.0096,-0.0095,0,0,0,0,0,0,0.0026,0.0025,0.0013,0.0016,0.0014,-0.0008,-0.0009,-0.0013,-0.002,-0.0044,-0.005,-0.0036,-0.0071,-0.0075,-0.0082,-0.0063,-0.0098,-0.0098,-0.0097,-0.0096,-0.0095,-0.0024,0,0,0,0,0,0,0.0026,0.0025,0.0026,0.0016,0.0014,0.0022,-0.0008,-0.0013,-0.0019,-0.0023,-0.0048,-0.0054,-0.0072,-0.008,-0.0082,-0.0064,-0.0099,-0.0097,-0.0096,-0.0096,-0.0027,-0.0021,-0.0016,0,0,0,0,0,0.0027,0.004,0.0027,0.0025,0.0016,0.0023,0.0022,0.0002,-0.0018,-0.0011,-0.0034,-0.0053,-0.0077,-0.008,-0.0083,-0.0064,-0.0098,-0.0097,-0.0096,-0.003,-0.0022,-0.0016,0,0,0,0,0,0,0.005,0.0036,0.0022,0.0029,0.0026,0.0015,0.002,0.0005,-0.0005,-0.0014,-0.0043,-0.0049,-0.005,-0.0067,-0.0071,-0.0064,-0.0092,-0.0091,-0.0041,-0.0034,-0.0029,-0.0015,-0.0099,0,0,0,0,0,0.0055,0.0057,0.0046,0.0052,0.0051,0.0035,0.0034,0.0022,0.001,0.0004,-0.0013,-0.0034,-0.0044,-0.0049,-0.0062,-0.005,-0.0084,-0.0043,-0.0038,-0.0033,-0.0025,-0.0061,-0.0058,-0.0092,-0.0092,-0.0092,0,0,0.0066,0.0058,0.0059,0.0056,0.005,0.0067,0.0032,0.0036,0.005,0.0002,0.0013,-0.0014,-0.0039,-0.0032,-0.0034,-0.0044,-0.0043,-0.0031,-0.0027,-0.0021,-0.006,-0.0056,-0.0054,-0.0091,-0.0091,-0.0091,0,0,0.0099,0.0081,0.0098,0.0099,0.0094,0.0088,0.009,0.0082,0.0077,0.0084,0.0049,0.0033,0.0023,0.001,0.0001,0.003,-0.0015,0.0023,0.0069,0.0034,0.0037,0.0039,-0.0005,-0.0008,0.003,0.0031,0.0031,0,0.0112,0.013,0.0106,0.0126,0.0135,0.0102,0.0131,0.0127,0.0118,0.0119,0.0095,0.0069,0.0046,0.0052,0.0059,0.0045,0.0011,0.0049,0.0042,0.0043,0.0044,-0.0001,-0.0005,0.0034,0.0034,0.0033,0.0033,0,0.0158,0.0175,0.0187,0.0199,0.0207,0.0226,0.0217,0.022,0.0204,0.0194,0.0188,0.0152,0.0135,0.0126,0.0103,0.0103,0.0071,0.005,0.0028,0.0052,0.0002,-0.0003,0.0039,0.0038,0.0037,0.0036,0,0,0.0186,0.0216,0.0219,0.0243,0.0248,0.0262,0.0284,0.0296,0.0304,0.0284,0.0292,0.0269,0.0233,0.022,0.0184,0.0157,0.0128,0.0112,0.0109,0.0074,0.004,0.0004,-0.0006,0.0104,0.0103,0.0103,0.0002,0,0.0232,0.0292,0.029,0.0348,0.0381,0.0362,0.0386,0.0387,0.0371,0.0366,0.0324,0.0311,0.0275,0.0257,0.0229,0.0146,0.0119,0.0157,0.0018,0.0014,-0.0017,-0.0012,0.0102,-0.0002,-0.0003,-0.0004,-0.0005,0,0.028,0.0315,0.0384,0.0429,0.0439,0.0465,0.0486,0.0502,0.0481,0.0463,0.0437,0.0388,0.0349,0.0307,0.0199,0.0221,0.0144,0.0081,0.0075,0.0014,-0.0032,-0.0032,-0.0015,-0.0014,-0.0014,-0.0013,-0.0012,0,0.0321,0.0381,0.0441,0.0456,0.0498,0.0523,0.0538,0.0533,0.0538,0.0516,0.0495,0.0446,0.0395,0.0312,0.0174,0.0184,0.0036,0.0031,-0.0071,-0.0076,-0.0044,-0.0045,-0.0039,-0.0039,-0.0039,-0.0038,-0.0038,0,0.0374,0.042,0.0466,0.0501,0.0559,0.0571,0.0611,0.0613,0.06,0.0592,0.0544,0.0503,0.0389,0.0285,0.0184,0.0029,0.004,-0.0064,-0.0101,-0.0013,-0.0009,-0.0048,-0.0048,-0.0042,-0.0041,-0.004,-0.004,0,0.041,0.0442,0.0511,0.0566,0.0584,0.0623,0.0652,0.0662,0.0653,0.0633,0.0621,0.0529,0.039,0.0264,0.0099,0.0024,-0.0107,-0.0164,-0.0072,-0.0103,-0.0194,-0.0188,-0.027,-0.0272,-0.0273,-0.0275,-0.0276,0,0.0435,0.0476,0.055,0.0578,0.0605,0.0656,0.0675,0.0687,0.0684,0.0634,0.0612,0.0488,0.0408,0.016,0.003,-0.0161,-0.0186,-0.0246,-0.0197,-0.0187,-0.0216,-0.0208,-0.0201,-0.0279,-0.0279,-0.028,-0.028,0,0.0469,0.0493,0.0538,0.0597,0.0633,0.0671,0.0698,0.0701,0.069,0.0684,0.0591,0.0468,0.0304,0.0138,-0.0023,-0.0155,-0.0196,-0.0264,-0.0261,-0.0215,-0.02,-0.0225,-0.0215,-0.0286,-0.0286,-0.0285,-0.0285,0,0.0472,0.0499,0.0545,0.0586,0.0633,0.0651,0.0684,0.0668,0.0668,0.0622,0.0582,0.043,0.0347,0.0135,-0.0012,-0.0147,-0.0166,-0.0184,-0.0185,-0.018,-0.0121,-0.0087,-0.0171,0,0,0,0,0,0.0462,0.0472,0.052,0.0554,0.06,0.062,0.0667,0.0688,0.0686,0.0624,0.0609,0.046,0.0237,0.0142,0.0001,-0.005,-0.0196,-0.0219,-0.0219,-0.032,-0.0313,-0.0262,0,0,0,0,0,0,0.0445,0.0485,0.0502,0.0507,0.052,0.0557,0.0589,0.06,0.0576,0.0568,0.0456,0.0414,0.0202,0.0302,-0.0014,-0.0055,-0.0073,-0.0317,-0.032,-0.0324,-0.0318,-0.0312,-0.0257,0,0,0,0,0]}]]